This is the latest recevied weather packets stored in our database for station/object WX5RP. If no packets are shown the sender has not sent any weather packets the latest 10 day(s).
| Time | Temp. | Humidity | Pressure | Rain* | Wind** | Luminosity | Snow |
|---|---|---|---|---|---|---|---|
| 1777744515 | 18.89° C | 27% | 1015.4 hPa | 0 mm | - | 795 W/m² | - |
| 1777743915 | 18.33° C | 31% | 1015.5 hPa | 0 mm | - | 769 W/m² | - |
| 1777743317 | 17.78° C | 31% | 1015.1 hPa | 0 mm | - | 816 W/m² | - |
| 1777742717 | 17.22° C | 31% | 1015.4 hPa | 0 mm | - | 716 W/m² | - |
| 1777742117 | 16.67° C | 38% | 1015.5 hPa | 0 mm | - | 660 W/m² | - |
| 1777741517 | 15.56° C | 40% | 1015.9 hPa | 0 mm | - | 724 W/m² | - |
| 1777740917 | 15° C | 43% | 1016.4 hPa | 0 mm | - | 679 W/m² | - |
| 1777740317 | 13.89° C | 42% | 1016.4 hPa | 0 mm | - | 419 W/m² | - |
| 1777739717 | 13.89° C | 46% | 1016.5 hPa | 0 mm | - | 618 W/m² | - |
| 1777739117 | 13.33° C | 43% | 1016.7 hPa | 0 mm | - | 512 W/m² | - |
| 1777738517 | 12.22° C | 45% | 1016.4 hPa | 0 mm | - | 572 W/m² | - |
| 1777737917 | 11.11° C | 52% | 1015.7 hPa | 0 mm | - | 366 W/m² | - |
| 1777737317 | 11.11° C | 56% | 1016 hPa | 0 mm | - | 253 W/m² | - |
| 1777736717 | 10.56° C | 61% | 1016.3 hPa | 0 mm | - | 369 W/m² | - |
| 1777736117 | 10° C | 60% | 1016.4 hPa | 0 mm | - | 276 W/m² | - |
| 1777735516 | 9.44° C | 62% | 1016.8 hPa | 0 mm | - | 213 W/m² | - |
| 1777734916 | 8.89° C | 62% | 1016.5 hPa | 0 mm | - | 210 W/m² | - |
| 1777734316 | 8.33° C | 64% | 1015.8 hPa | 0 mm | - | 219 W/m² | - |
| 1777733716 | 7.78° C | 68% | 1016 hPa | 0 mm | - | 290 W/m² | - |
| 1777733137 | 6.67° C | 72% | 1015.9 hPa | 0 mm | - | 232 W/m² | - |
| 1777732518 | 5.56° C | 74% | 1016.7 hPa | 0 mm | - | 155 W/m² | - |
| 1777731936 | 4.44° C | 74% | 1016.8 hPa | 0 mm | - | 124 W/m² | - |
| 1777731317 | 4.44° C | 74% | 1016.7 hPa | 0 mm | - | 92 W/m² | - |
| 1777730716 | 3.89° C | 75% | 1015.8 hPa | 0 mm | - | 71 W/m² | - |
| 1777730117 | 3.89° C | 75% | 1015.8 hPa | 0 mm | - | 55 W/m² | - |
* Rain latest hour (hover to see other rain measurements)
** Current wind speed in m/s (hover to see current wind gust speed)